HFY003 SAAR-SBFL

Flight info

Callsign HFY003
Flight time 1h 36m
Altitude 37000
Route TINTA2C TINTA DCT ANRAL UM534 NELOX UN857 ITBEB UM540 DADMO
Aircraft A320/M-SDE3FGHIRWY/LB1

Departure

Time 2026-05-06 14:51
Airport Rosario Islas Malvinas International Airport (SAAR)

Arrival

Time 2026-05-06 16:28
Airport Hercílio Luz International Airport (SBFL)
Time Latitude Longitude Altitude Speed Heading
2026-05-06 14:32 -32.91532 -60.78083 96 ft 0 kts 110°
2026-05-06 14:36 -32.91532 -60.78084 96 ft 0 kts 110°
2026-05-06 14:38 -32.91531 -60.78084 97 ft 0 kts 110°
2026-05-06 14:45 -32.91530 -60.78089 97 ft 2 kts 110°
2026-05-06 14:45 -32.91523 -60.78111 96 ft 3 kts 110°
2026-05-06 14:45 -32.91516 -60.78133 94 ft 3 kts 111°
2026-05-06 14:45 -32.91508 -60.78156 95 ft 3 kts 117°
2026-05-06 14:46 -32.91498 -60.78175 95 ft 3 kts 141°
2026-05-06 14:46 -32.91487 -60.78183 96 ft 2 kts 195°
2026-05-06 14:46 -32.91484 -60.78182 95 ft 0 kts 200°
2026-05-06 14:48 -32.91487 -60.78183 94 ft 3 kts 200°
2026-05-06 14:48 -32.91576 -60.78223 95 ft 18 kts 200°
2026-05-06 14:48 -32.91689 -60.78273 97 ft 17 kts 200°
2026-05-06 14:48 -32.91753 -60.78339 95 ft 12 kts 256°
2026-05-06 14:49 -32.91770 -60.78427 95 ft 10 kts 258°
2026-05-06 14:49 -32.91784 -60.78507 95 ft 9 kts 258°
2026-05-06 14:49 -32.91790 -60.78576 95 ft 7 kts 295°
2026-05-06 14:49 -32.91762 -60.78624 95 ft 6 kts 308°
2026-05-06 14:50 -32.91727 -60.78675 95 ft 12 kts 310°
2026-05-06 14:50 -32.91651 -60.78756 96 ft 13 kts 337°
2026-05-06 14:50 -32.91617 -60.78751 97 ft 7 kts
2026-05-06 14:50 -32.91519 -60.78733 97 ft 34 kts
2026-05-06 14:51 -32.90982 -60.78614 99 ft 120 kts 11°
2026-05-06 14:51 -32.90041 -60.78388 406 ft 149 kts 12°
2026-05-06 14:51 -32.88931 -60.78118 793 ft 178 kts 12°
2026-05-06 14:51 -32.87702 -60.77810 1690 ft 185 kts 10°
2026-05-06 14:52 -32.86402 -60.77482 2529 ft 199 kts
2026-05-06 14:52 -32.84984 -60.77132 3398 ft 216 kts
2026-05-06 14:52 -32.83508 -60.76669 4588 ft 220 kts 21°
2026-05-06 14:52 -32.82406 -60.75405 5873 ft 235 kts 54°
2026-05-06 14:53 -32.81785 -60.73569 7077 ft 244 kts 64°
2026-05-06 14:53 -32.81293 -60.71611 8166 ft 254 kts 70°
2026-05-06 14:53 -32.81322 -60.69429 9182 ft 277 kts 98°
2026-05-06 14:53 -32.82008 -60.67155 9844 ft 307 kts 108°
2026-05-06 14:54 -32.82766 -60.64677 10410 ft 331 kts 104°
2026-05-06 14:54 -32.83458 -60.61968 10955 ft 355 kts 102°
2026-05-06 14:54 -32.84130 -60.59074 11745 ft 368 kts 102°
2026-05-06 14:54 -32.84807 -60.56094 12569 ft 381 kts 102°
2026-05-06 14:55 -32.85523 -60.52955 12954 ft 405 kts 103°
2026-05-06 14:55 -32.86295 -60.49636 13345 ft 427 kts 103°
2026-05-06 14:55 -32.87117 -60.46180 13876 ft 438 kts 104°
2026-05-06 14:55 -32.87953 -60.42754 15174 ft 424 kts 104°
2026-05-06 14:56 -32.88795 -60.39320 15641 ft 440 kts 104°
2026-05-06 14:56 -32.89657 -60.35786 16044 ft 449 kts 104°
2026-05-06 14:56 -32.90514 -60.32265 17179 ft 433 kts 104°
2026-05-06 14:56 -32.91334 -60.28876 18275 ft 424 kts 104°
2026-05-06 14:57 -32.92127 -60.25511 18681 ft 420 kts 101°
2026-05-06 14:57 -32.92536 -60.22079 19100 ft 418 kts 89°
2026-05-06 14:57 -32.92402 -60.18644 19520 ft 416 kts 77°
2026-05-06 14:57 -32.91750 -60.15308 19939 ft 413 kts 66°
2026-05-06 14:58 -32.90607 -60.12189 20372 ft 409 kts 55°
2026-05-06 14:58 -32.89177 -60.09265 20812 ft 411 kts 54°
2026-05-06 14:58 -32.87726 -60.06323 21258 ft 413 kts 54°
2026-05-06 14:58 -32.86268 -60.03370 21715 ft 415 kts 54°
2026-05-06 14:59 -32.84798 -60.00388 22181 ft 418 kts 54°
2026-05-06 14:59 -32.83327 -59.97394 22650 ft 421 kts 54°
2026-05-06 14:59 -32.81845 -59.94377 23128 ft 424 kts 54°
2026-05-06 14:59 -32.80365 -59.91370 23576 ft 427 kts 53°
2026-05-06 15:00 -32.78859 -59.88315 23967 ft 430 kts 53°
2026-05-06 15:00 -32.77346 -59.85245 24377 ft 433 kts 53°
2026-05-06 15:00 -32.75819 -59.82149 24797 ft 435 kts 53°
2026-05-06 15:00 -32.74285 -59.79041 25221 ft 437 kts 53°
2026-05-06 15:01 -32.72722 -59.75882 25665 ft 439 kts 53°
2026-05-06 15:01 -32.71189 -59.72787 26090 ft 441 kts 53°
2026-05-06 15:01 -32.69632 -59.69641 26536 ft 442 kts 53°
2026-05-06 15:01 -32.68075 -59.66497 26985 ft 443 kts 53°
2026-05-06 15:02 -32.66508 -59.63331 27445 ft 444 kts 53°
2026-05-06 15:02 -32.64941 -59.60172 27906 ft 444 kts 53°
2026-05-06 15:02 -32.63372 -59.57014 28368 ft 445 kts 53°
2026-05-06 15:02 -32.61798 -59.53855 28852 ft 445 kts 53°
2026-05-06 15:03 -32.60225 -59.50698 29337 ft 445 kts 53°
2026-05-06 15:03 -32.58651 -59.47542 29840 ft 444 kts 53°
2026-05-06 15:03 -32.57077 -59.44386 30274 ft 444 kts 52°
2026-05-06 15:03 -32.55507 -59.41242 30700 ft 443 kts 52°
2026-05-06 15:04 -32.53961 -59.38060 31134 ft 445 kts 56°
2026-05-06 15:04 -32.52723 -59.34735 31579 ft 450 kts 65°
2026-05-06 15:04 -32.51714 -59.31173 32018 ft 450 kts 66°
2026-05-06 15:04 -32.50739 -59.27706 32463 ft 448 kts 66°
2026-05-06 15:05 -32.49746 -59.24203 32920 ft 446 kts 65°
2026-05-06 15:05 -32.48757 -59.20728 33350 ft 445 kts 65°
2026-05-06 15:05 -32.47765 -59.17249 33618 ft 448 kts 65°
2026-05-06 15:05 -32.46765 -59.13750 33862 ft 450 kts 65°
2026-05-06 15:06 -32.45755 -59.10223 34070 ft 453 kts 65°
2026-05-06 15:06 -32.44738 -59.06676 34275 ft 456 kts 65°
2026-05-06 15:06 -32.43714 -59.03118 34499 ft 458 kts 65°
2026-05-06 15:06 -32.42684 -58.99538 34675 ft 461 kts 65°
2026-05-06 15:07 -32.41644 -58.95923 34873 ft 464 kts 65°
2026-05-06 15:07 -32.40603 -58.92299 35071 ft 466 kts 65°
2026-05-06 15:07 -32.39559 -58.88655 35266 ft 468 kts 65°
2026-05-06 15:07 -32.38507 -58.84989 35457 ft 471 kts 65°
2026-05-06 15:08 -32.37447 -58.81311 35635 ft 473 kts 65°
2026-05-06 15:08 -32.36398 -58.77671 35819 ft 475 kts 65°
2026-05-06 15:08 -32.35328 -58.73961 35997 ft 477 kts 65°
2026-05-06 15:08 -32.34254 -58.70243 36176 ft 479 kts 65°
2026-05-06 15:09 -32.33175 -58.66518 36345 ft 481 kts 66°
2026-05-06 15:09 -32.32133 -58.62751 36512 ft 484 kts 67°
2026-05-06 15:09 -32.31139 -58.58939 36665 ft 486 kts 68°
2026-05-06 15:09 -32.30179 -58.55097 36841 ft 488 kts 69°
2026-05-06 15:10 -32.29225 -58.51229 36900 ft 492 kts 69°
2026-05-06 15:10 -32.27258 -58.43386 36907 ft 503 kts 69°
2026-05-06 15:11 -32.25198 -58.35389 36907 ft 514 kts 68°
2026-05-06 15:11 -32.23079 -58.27242 36904 ft 524 kts 68°
2026-05-06 15:12 -32.20919 -58.18948 36887 ft 530 kts 68°
2026-05-06 15:12 -32.18665 -58.10642 36911 ft 531 kts 67°
2026-05-06 15:13 -32.16298 -58.02388 36921 ft 531 kts 66°
2026-05-06 15:13 -32.13928 -57.94193 36923 ft 531 kts 66°
2026-05-06 15:14 -32.11576 -57.85929 36915 ft 531 kts 67°
2026-05-06 15:14 -32.09240 -57.77656 36922 ft 531 kts 67°
2026-05-06 15:15 -32.06893 -57.69391 36927 ft 531 kts 67°
2026-05-06 15:15 -32.04532 -57.61131 36917 ft 531 kts 67°
2026-05-06 15:16 -32.02158 -57.52878 36927 ft 531 kts 67°
2026-05-06 15:16 -31.99784 -57.44638 36935 ft 531 kts 67°
2026-05-06 15:17 -31.97404 -57.36383 36928 ft 532 kts 67°
2026-05-06 15:17 -31.95025 -57.28155 36935 ft 532 kts 67°
2026-05-06 15:18 -31.92631 -57.19912 36942 ft 532 kts 67°
2026-05-06 15:18 -31.90233 -57.11680 36949 ft 532 kts 67°
2026-05-06 15:19 -31.87836 -57.03453 36945 ft 532 kts 68°
2026-05-06 15:19 -31.85432 -56.95223 36948 ft 532 kts 67°
2026-05-06 15:20 -31.83017 -56.87002 36958 ft 532 kts 67°
2026-05-06 15:20 -31.80590 -56.78786 36954 ft 532 kts 68°
2026-05-06 15:21 -31.78168 -56.70550 36957 ft 532 kts 68°
2026-05-06 15:21 -31.75759 -56.62375 36965 ft 532 kts 67°
2026-05-06 15:22 -31.73318 -56.54160 36968 ft 533 kts 67°
2026-05-06 15:22 -31.70862 -56.45936 36969 ft 533 kts 67°
2026-05-06 15:23 -31.68419 -56.37718 36973 ft 533 kts 68°
2026-05-06 15:23 -31.65971 -56.29494 36966 ft 534 kts 68°
2026-05-06 15:24 -31.63510 -56.21276 36968 ft 534 kts 67°
2026-05-06 15:24 -31.61037 -56.13046 36971 ft 535 kts 67°
2026-05-06 15:25 -31.58558 -56.04825 36980 ft 535 kts 67°
2026-05-06 15:25 -31.56081 -55.96588 36988 ft 535 kts 67°
2026-05-06 15:26 -31.53595 -55.88351 36982 ft 535 kts 67°
2026-05-06 15:26 -31.51526 -55.81521 36983 ft 535 kts 67°
2026-05-06 15:27 -31.49016 -55.73311 36976 ft 535 kts 67°
2026-05-06 15:27 -31.46504 -55.65098 36995 ft 535 kts 67°
2026-05-06 15:28 -31.43998 -55.56895 37001 ft 535 kts 67°
2026-05-06 15:28 -31.41486 -55.48687 36988 ft 535 kts 67°
2026-05-06 15:29 -31.38970 -55.40491 36988 ft 535 kts 67°
2026-05-06 15:29 -31.36446 -55.32294 36995 ft 535 kts 67°
2026-05-06 15:30 -31.33930 -55.24154 36997 ft 536 kts 67°
2026-05-06 15:30 -31.31379 -55.15958 36998 ft 536 kts 67°
2026-05-06 15:31 -31.28824 -55.07775 37001 ft 536 kts 67°
2026-05-06 15:31 -31.26195 -54.99627 36999 ft 536 kts 66°
2026-05-06 15:32 -31.22205 -54.87420 37010 ft 536 kts 66°
2026-05-06 15:32 -31.19557 -54.79281 37016 ft 536 kts 66°
2026-05-06 15:33 -31.16921 -54.71143 37016 ft 536 kts 67°
2026-05-06 15:33 -31.14267 -54.62999 37026 ft 536 kts 66°
2026-05-06 15:34 -31.11593 -54.54869 37034 ft 536 kts 66°
2026-05-06 15:34 -31.08917 -54.46739 37025 ft 536 kts 67°
2026-05-06 15:35 -31.06262 -54.38668 37034 ft 536 kts 67°
2026-05-06 15:35 -31.03594 -54.30549 37040 ft 536 kts 67°
2026-05-06 15:36 -31.00917 -54.22431 37043 ft 536 kts 67°
2026-05-06 15:36 -30.98223 -54.14322 37053 ft 536 kts 67°
2026-05-06 15:37 -30.95551 -54.06205 37050 ft 536 kts 67°
2026-05-06 15:37 -30.92889 -53.98074 37055 ft 536 kts 68°
2026-05-06 15:38 -30.90224 -53.89962 37065 ft 536 kts 67°
2026-05-06 15:38 -30.87547 -53.81855 37059 ft 536 kts 67°
2026-05-06 15:39 -30.84861 -53.73756 37058 ft 536 kts 68°
2026-05-06 15:39 -30.82176 -53.65658 37065 ft 536 kts 67°
2026-05-06 15:40 -30.79486 -53.57558 37065 ft 536 kts 68°
2026-05-06 15:40 -30.76789 -53.49467 37064 ft 536 kts 67°
2026-05-06 15:41 -30.74077 -53.41383 37066 ft 536 kts 67°
2026-05-06 15:41 -30.71384 -53.33295 37065 ft 536 kts 68°
2026-05-06 15:42 -30.68789 -53.25171 37057 ft 536 kts 69°
2026-05-06 15:42 -30.66235 -53.17109 37058 ft 535 kts 69°
2026-05-06 15:43 -30.63626 -53.09013 37069 ft 535 kts 68°
2026-05-06 15:43 -30.60995 -53.00937 37071 ft 534 kts 68°
2026-05-06 15:44 -30.58377 -52.92877 37066 ft 534 kts 68°
2026-05-06 15:44 -30.55757 -52.84810 37070 ft 533 kts 68°
2026-05-06 15:45 -30.53138 -52.76766 37070 ft 533 kts 68°
2026-05-06 15:45 -30.50515 -52.68733 37061 ft 532 kts 69°
2026-05-06 15:46 -30.47878 -52.60718 37074 ft 532 kts 68°
2026-05-06 15:46 -30.45239 -52.52698 37077 ft 532 kts 68°
2026-05-06 15:47 -30.42602 -52.44684 37076 ft 532 kts 69°
2026-05-06 15:47 -30.39963 -52.36682 37081 ft 532 kts 69°
2026-05-06 15:48 -30.37319 -52.28680 37085 ft 532 kts 69°
2026-05-06 15:48 -30.34662 -52.20674 37092 ft 531 kts 69°
2026-05-06 15:49 -30.32008 -52.12761 37090 ft 530 kts 69°
2026-05-06 15:49 -30.29334 -52.04801 37087 ft 530 kts 69°
2026-05-06 15:50 -30.26672 -51.96846 37081 ft 530 kts 69°
2026-05-06 15:50 -30.24021 -51.88887 37076 ft 530 kts 69°
2026-05-06 15:51 -30.21368 -51.80920 37077 ft 530 kts 69°
2026-05-06 15:51 -30.18699 -51.72965 37075 ft 531 kts 69°
2026-05-06 15:52 -30.16021 -51.65006 37070 ft 531 kts 69°
2026-05-06 15:52 -30.13347 -51.57049 37048 ft 531 kts 70°
2026-05-06 15:53 -30.10669 -51.49111 37069 ft 530 kts 69°
2026-05-06 15:53 -30.07983 -51.41179 37071 ft 530 kts 69°
2026-05-06 15:54 -30.05301 -51.33259 37069 ft 530 kts 70°
2026-05-06 15:54 -30.02631 -51.25394 37070 ft 529 kts 69°
2026-05-06 15:55 -29.99671 -51.17633 37065 ft 528 kts 58°
2026-05-06 15:55 -29.95246 -51.10935 37088 ft 524 kts 45°
2026-05-06 15:56 -29.90356 -51.04677 37085 ft 524 kts 45°
2026-05-06 15:56 -29.85475 -50.98427 37079 ft 524 kts 45°
2026-05-06 15:57 -29.80591 -50.92180 37078 ft 524 kts 45°
2026-05-06 15:57 -29.75704 -50.85946 37084 ft 525 kts 45°
2026-05-06 15:58 -29.70811 -50.79719 37064 ft 524 kts 45°
2026-05-06 15:58 -29.65905 -50.73500 37080 ft 525 kts 45°
2026-05-06 15:59 -29.61037 -50.67326 37083 ft 525 kts 45°
2026-05-06 15:59 -29.56134 -50.61107 37086 ft 525 kts 45°
2026-05-06 16:00 -29.50972 -50.55203 37079 ft 519 kts 33°
2026-05-06 16:00 -29.45202 -50.50236 37102 ft 519 kts 32°
2026-05-06 16:01 -29.39418 -50.45274 37117 ft 519 kts 32°
2026-05-06 16:01 -29.33639 -50.40311 37127 ft 519 kts 32°
2026-05-06 16:02 -29.27887 -50.35377 37129 ft 520 kts 32°
2026-05-06 16:02 -29.22092 -50.30418 37118 ft 520 kts 32°
2026-05-06 16:03 -29.19195 -50.27947 36750 ft 515 kts 32°
2026-05-06 16:03 -29.16363 -50.25529 36632 ft 502 kts 32°
2026-05-06 16:03 -29.13595 -50.23162 36522 ft 490 kts 32°
2026-05-06 16:03 -29.10881 -50.20843 36409 ft 484 kts 32°
2026-05-06 16:04 -29.08189 -50.18547 36305 ft 482 kts 32°
2026-05-06 16:04 -29.05509 -50.16265 36203 ft 480 kts 32°
2026-05-06 16:04 -29.02827 -50.13988 36091 ft 479 kts 32°
2026-05-06 16:04 -29.00155 -50.11723 35992 ft 477 kts 32°
2026-05-06 16:05 -28.97492 -50.09467 35888 ft 476 kts 32°
2026-05-06 16:05 -28.94837 -50.07216 35783 ft 475 kts 32°
2026-05-06 16:05 -28.92223 -50.04998 35678 ft 474 kts 32°
2026-05-06 16:05 -28.89576 -50.02751 35543 ft 474 kts 32°
2026-05-06 16:06 -28.86940 -50.00514 35296 ft 471 kts 32°
2026-05-06 16:06 -28.84317 -49.98287 35058 ft 468 kts 32°
2026-05-06 16:06 -28.81713 -49.96078 34817 ft 466 kts 32°
2026-05-06 16:06 -28.79115 -49.93875 34583 ft 465 kts 33°
2026-05-06 16:07 -28.76521 -49.91682 34346 ft 462 kts 33°
2026-05-06 16:07 -28.73946 -49.89509 34119 ft 459 kts 32°
2026-05-06 16:07 -28.71395 -49.87353 33847 ft 456 kts 33°
2026-05-06 16:07 -28.68853 -49.85203 33585 ft 452 kts 33°
2026-05-06 16:08 -28.66337 -49.83076 33325 ft 450 kts 33°
2026-05-06 16:08 -28.63834 -49.80963 33068 ft 446 kts 33°
2026-05-06 16:08 -28.61348 -49.78867 32811 ft 443 kts 33°
2026-05-06 16:08 -28.58880 -49.76790 32555 ft 439 kts 33°
2026-05-06 16:09 -28.56433 -49.74730 32300 ft 436 kts 33°
2026-05-06 16:09 -28.54008 -49.72689 32045 ft 432 kts 34°
2026-05-06 16:09 -28.51599 -49.70666 31804 ft 428 kts 33°
2026-05-06 16:09 -28.49212 -49.68661 31565 ft 425 kts 34°
2026-05-06 16:10 -28.46843 -49.66671 31323 ft 422 kts 34°
2026-05-06 16:10 -28.45277 -49.65358 31164 ft 420 kts 34°
2026-05-06 16:10 -28.42182 -49.62764 30848 ft 415 kts 34°
2026-05-06 16:10 -28.39862 -49.60820 30605 ft 412 kts 34°
2026-05-06 16:11 -28.37564 -49.58896 30372 ft 410 kts 34°
2026-05-06 16:11 -28.35276 -49.56985 30137 ft 407 kts 34°
2026-05-06 16:11 -28.33739 -49.55699 29832 ft 406 kts 35°
2026-05-06 16:11 -28.31697 -49.53520 29563 ft 400 kts 53°
2026-05-06 16:12 -28.30276 -49.50839 29456 ft 395 kts 68°
2026-05-06 16:12 -28.29145 -49.47998 29337 ft 396 kts 68°
2026-05-06 16:12 -28.28008 -49.45101 28559 ft 407 kts 68°
2026-05-06 16:12 -28.26868 -49.42165 27988 ft 408 kts 68°
2026-05-06 16:13 -28.25723 -49.39209 27408 ft 410 kts 68°
2026-05-06 16:13 -28.24569 -49.36231 26815 ft 413 kts 68°
2026-05-06 16:13 -28.23418 -49.33273 26222 ft 416 kts 67°
2026-05-06 16:13 -28.22239 -49.30256 25376 ft 425 kts 67°
2026-05-06 16:14 -28.21018 -49.27136 24331 ft 441 kts 66°
2026-05-06 16:14 -28.19751 -49.23903 23177 ft 455 kts 66°
2026-05-06 16:14 -28.18448 -49.20579 21915 ft 468 kts 66°
2026-05-06 16:14 -28.17110 -49.17168 20783 ft 476 kts 66°
2026-05-06 16:15 -28.15775 -49.13764 20189 ft 470 kts 65°
2026-05-06 16:15 -28.14450 -49.10395 19542 ft 466 kts 65°
2026-05-06 16:15 -28.13135 -49.07057 18892 ft 462 kts 65°
2026-05-06 16:15 -28.11831 -49.03748 18242 ft 458 kts 65°
2026-05-06 16:16 -28.10540 -49.00471 17585 ft 453 kts 65°
2026-05-06 16:16 -28.09262 -48.97228 16966 ft 448 kts 65°
2026-05-06 16:16 -28.07995 -48.94012 16347 ft 444 kts 65°
2026-05-06 16:16 -28.06746 -48.90844 15741 ft 439 kts 65°
2026-05-06 16:17 -28.05504 -48.87700 15137 ft 435 kts 65°
2026-05-06 16:17 -28.04273 -48.84590 14540 ft 431 kts 65°
2026-05-06 16:17 -28.03050 -48.81506 13920 ft 427 kts 64°
2026-05-06 16:17 -28.01822 -48.78413 12659 ft 435 kts 65°
2026-05-06 16:18 -28.00588 -48.75300 11785 ft 426 kts 65°
2026-05-06 16:18 -27.99394 -48.72287 10578 ft 414 kts 65°
2026-05-06 16:18 -27.98233 -48.69363 9363 ft 402 kts 65°
2026-05-06 16:18 -27.97101 -48.66512 8115 ft 391 kts 64°
2026-05-06 16:19 -27.95998 -48.63742 6907 ft 382 kts 65°
2026-05-06 16:19 -27.94918 -48.61032 5692 ft 374 kts 64°
2026-05-06 16:19 -27.93866 -48.58394 4845 ft 358 kts 64°
2026-05-06 16:19 -27.92874 -48.55903 4702 ft 338 kts 64°
2026-05-06 16:20 -27.91935 -48.53545 4576 ft 321 kts 63°
2026-05-06 16:20 -27.91042 -48.51303 4448 ft 305 kts 64°
2026-05-06 16:20 -27.90204 -48.49198 4332 ft 290 kts 63°
2026-05-06 16:20 -27.89391 -48.47158 4196 ft 276 kts 63°
2026-05-06 16:21 -27.88620 -48.45224 4082 ft 263 kts 63°
2026-05-06 16:21 -27.87887 -48.43388 3952 ft 250 kts 63°
2026-05-06 16:21 -27.87194 -48.41650 3948 ft 237 kts 62°
2026-05-06 16:21 -27.86510 -48.39953 3961 ft 237 kts 63°
2026-05-06 16:22 -27.85831 -48.38268 3960 ft 235 kts 61°
2026-05-06 16:22 -27.85153 -48.36585 3960 ft 236 kts 61°
2026-05-06 16:22 -27.84364 -48.34971 3962 ft 232 kts 48°
2026-05-06 16:22 -27.83176 -48.33794 3965 ft 226 kts 26°
2026-05-06 16:23 -27.81733 -48.33177 3962 ft 220 kts
2026-05-06 16:23 -27.80216 -48.33141 3802 ft 220 kts 347°
2026-05-06 16:23 -27.78785 -48.33697 3479 ft 216 kts 328°
2026-05-06 16:23 -27.77622 -48.34751 3172 ft 214 kts 310°
2026-05-06 16:24 -27.76801 -48.36130 2872 ft 211 kts 301°
2026-05-06 16:24 -27.76048 -48.37545 2595 ft 209 kts 302°
2026-05-06 16:24 -27.75304 -48.38926 2420 ft 209 kts 302°
2026-05-06 16:24 -27.74546 -48.40329 2239 ft 210 kts 302°
2026-05-06 16:25 -27.73777 -48.41753 2047 ft 207 kts 302°
2026-05-06 16:25 -27.73051 -48.43097 1870 ft 201 kts 302°
2026-05-06 16:25 -27.72335 -48.44423 1710 ft 193 kts 303°
2026-05-06 16:25 -27.71660 -48.45675 1507 ft 180 kts 302°
2026-05-06 16:26 -27.71027 -48.46852 1262 ft 171 kts 303°
2026-05-06 16:26 -27.70431 -48.47963 1036 ft 160 kts 304°
2026-05-06 16:26 -27.69880 -48.48991 855 ft 148 kts 304°
2026-05-06 16:26 -27.69360 -48.49956 654 ft 142 kts 305°
2026-05-06 16:27 -27.68845 -48.50909 464 ft 143 kts 304°
2026-05-06 16:27 -27.68344 -48.51864 300 ft 139 kts 304°
2026-05-06 16:27 -27.67860 -48.52749 126 ft 130 kts 305°
2026-05-06 16:27 -27.67404 -48.53581 28 ft 113 kts 303°
2026-05-06 16:28 -27.67110 -48.54112 27 ft 38 kts 301°
2026-05-06 16:28 -27.67027 -48.54270 30 ft 21 kts 301°
2026-05-06 16:28 -27.66952 -48.54409 30 ft 18 kts 301°
2026-05-06 16:28 -27.66973 -48.54515 29 ft 15 kts 220°
2026-05-06 16:29 -27.67001 -48.54536 27 ft 3 kts 212°
2026-05-06 16:29 -27.67005 -48.54539 27 ft 0 kts 212°
2026-05-06 16:29 -27.67007 -48.54540 27 ft 1 kts 212°
2026-05-06 16:29 -27.67016 -48.54547 27 ft 2 kts 212°
2026-05-06 16:30 -27.67029 -48.54556 27 ft 3 kts 212°
2026-05-06 16:30 -27.67048 -48.54570 28 ft 8 kts 212°
2026-05-06 16:30 -27.67111 -48.54611 29 ft 7 kts 207°
2026-05-06 16:30 -27.67153 -48.54618 29 ft 6 kts 170°
2026-05-06 16:31 -27.67178 -48.54611 29 ft 0 kts 159°
2026-05-06 16:31 -27.67180 -48.54610 29 ft 3 kts 159°
2026-05-06 16:31 -27.67203 -48.54573 29 ft 7 kts 109°
2026-05-06 16:32 -27.67222 -48.54536 29 ft 5 kts 142°
2026-05-06 16:32 -27.67225 -48.54533 29 ft 0 kts 134°
2026-05-06 16:32 -27.67229 -48.54525 29 ft 1 kts 124°
2026-05-06 16:32 -27.67232 -48.54520 29 ft 2 kts 124°
2026-05-06 16:33 -27.67240 -48.54517 29 ft 0 kts 172°
2026-05-06 16:33 -27.67256 -48.54524 29 ft 4 kts 205°
2026-05-06 16:33 -27.67257 -48.54525 29 ft 0 kts 208°
2026-05-06 16:34 -27.67279 -48.54540 29 ft 0 kts 211°
2026-05-06 16:34 -27.67281 -48.54541 29 ft 1 kts 211°
2026-05-06 16:34 -27.67282 -48.54542 29 ft 0 kts 211°